GW1652 Weather Reports


time (UTC)temp
C
wind
direction
speed
KPH
gust
KPH
rain 1hr
cm
rain 24hr
cm
rain mn
cm
humidity
%
barometer
mb
20260505124550 18 158 0.0 19.3 0.00 0.25 0.03 58 1013.9
20260505123046 18 310 6.4 14.5 0.00 0.25 0.03 63 1014.1
20260505121548 18 1 8.0 14.5 0.00 0.25 0.03 66 1014.1
20260505120042 18 278 8.0 16.1 0.00 0.25 0.03 61 1014.1
20260505114551 18 4 6.4 17.7 0.00 0.25 0.03 61 1014.1
20260505113054 18 326 8.0 16.1 0.00 0.25 0.03 66 1014.4
20260505111548 17 359 6.4 12.9 0.00 0.25 0.03 67 1014.6
20260505101544 16 321 6.4 11.3 0.00 0.25 0.03 70 1015.2
20260505100039 16 30 6.4 11.3 0.00 0.25 0.03 71 1015.2
20260505094552 16 342 3.2 11.3 0.00 0.25 0.03 74 1015.3
20260505093051 16 315 4.8 9.7 0.00 0.25 0.03 76 1015.3
20260505091542 16 18 6.4 14.5 0.00 0.25 0.03 77 1015.3
20260505090056 16 353 4.8 11.3 0.00 0.25 0.03 78 1015.3
20260505084547 15 312 4.8 11.3 0.00 0.25 0.03 78 1015.3
20260505083101 15 328 6.4 12.9 0.00 0.25 0.03 79 1015.3
20260505081542 15 307 6.4 11.3 0.00 0.25 0.03 82 1015.3
20260505080047 14 298 4.8 11.3 0.00 0.25 0.03 83 1015.2
20260505074548 14 339 6.4 11.3 0.00 0.28 0.03 83 1015.1
20260505073044 14 297 3.2 11.3 0.00 0.28 0.03 83 1015.1
20260505071549 13 314 4.8 9.7 0.00 0.28 0.03 83 1015.0
20260505064548 13 286 6.4 9.7 0.00 0.53 0.03 85 1014.6
20260505063048 12 302 1.6 9.7 0.00 0.53 0.03 86 1014.5
20260505061610 12 300 4.8 11.3 0.00 0.53 0.03 88 1014.2
20260505060056 12 311 1.6 6.4 0.00 0.53 0.03 88 1013.9
20260505054554 12 310 0.0 8.0 0.00 0.56 0.03 89 1014.1
20260505053043 12 302 1.6 9.7 0.00 0.56 0.03 89 1014.1
20260505051550 12 302 3.2 9.7 0.00 0.56 0.03 89 1013.9
20260505041546 12 307 4.8 8.0 0.00 0.66 0.03 91 1013.4
20260505040057 12 310 3.2 6.4 0.00 0.66 0.03 92 1013.3
20260505034547 12 308 3.2 8.0 0.00 0.86 0.03 94 1013.2
20260505033054 12 301 3.2 6.4 0.00 0.86 0.03 94 1013.2
20260505031551 12 288 3.2 6.4 0.00 0.86 0.03 94 1013.1
20260505030044 11 279 0.0 3.2 0.00 0.86 0.03 94 1013.1
20260505024540 11 312 1.6 4.8 0.00 1.07 0.03 94 1013.1
20260505023041 12 297 1.6 4.8 0.00 1.07 0.03 94 1013.1
20260505021538 12 290 1.6 4.8 0.00 1.07 0.03 94 1013.1
20260505020046 12 288 0.0 6.4 0.00 1.07 0.03 94 1012.9
20260505014545 12 276 3.2 9.7 0.00 3.10 0.03 94 1013.0
20260505013050 12 316 1.6 4.8 0.00 3.10 0.03 94 1013.0
20260505011545 12 302 3.2 9.7 0.00 3.10 0.03 94 1013.3
20260505010058 12 294 3.2 8.0 0.00 3.10 0.03 93 1013.4
20260505004548 12 301 1.6 6.4 0.00 3.10 0.03 93 1013.5
20260505003048 12 306 3.2 8.0 0.00 3.10 0.03 93 1013.5
20260505001547 12 303 4.8 6.4 0.00 3.10 0.03 93 1013.6
20260505000054 12 0 1.6 4.8 0.00 3.10 0.03 93 1013.7
20260504234541 12 0 1.6 6.4 0.00 3.10 0.03 93 1013.8
20260504233048 11 285 0.0 3.2 0.00 3.10 0.03 93 1013.7
20260504231542 11 310 0.0 1.6 0.00 3.10 0.03 93 1013.7
20260504230048 11 305 3.2 6.4 0.03 3.10 0.03 93 1013.8
20260504224543 11 0 0.0 6.4 0.10 3.10 0.03 92 1013.7
20260504223040 11 297 1.6 6.4 0.10 3.10 0.03 92 1013.8
20260504221543 12 0 0.0 3.2 0.10 3.10 0.03 91 1013.8
20260504220049 12 293 1.6 8.0 0.08 3.07 0.00 89 1014.2
20260504214545 13 312 4.8 8.0 0.00 2.97 2.97 83 1014.2
20260504213059 13 326 3.2 8.0 0.00 2.97 2.97 83 1014.1
20260504211544 13 327 1.6 4.8 0.08 2.97 2.97 84 1014.1
20260504210041 13 0 0.0 3.2 0.15 2.97 2.97 85 1014.1
20260504204559 13 0 0.0 0.0 0.15 2.97 2.97 86 1014.1
20260504203042 13 0 0.0 0.0 0.15 2.97 2.97 84 1014.0
20260504201547 13 0 3.2 8.0 0.08 2.92 2.92 84 1014.1
20260504200044 13 0 0.0 1.6 0.00 2.84 2.84 83 1013.9
20260504194541 14 0 0.0 3.2 0.00 2.84 2.84 82 1013.9
20260504193059 14 0 0.0 1.6 0.00 2.84 2.84 81 1014.0
20260504191548 14 0 0.0 6.4 0.00 2.84 2.84 80 1014.0
20260504190053 14 0 0.0 4.8 0.00 2.84 2.84 82 1013.9
20260504184544 14 312 0.0 3.2 0.00 2.84 2.84 83 1013.9
20260504183055 14 0 0.0 3.2 0.00 2.84 2.84 82 1013.8
20260504181546 15 0 0.0 0.0 0.00 2.84 2.84 78 1013.7
20260504180122 15 0 0.0 1.6 0.00 2.84 2.84 76 1013.5
20260504174548 15 0 0.0 1.6 0.00 2.84 2.84 76 1013.4
20260504173046 15 288 0.0 1.6 0.00 2.84 2.84 75 1013.3
20260504171547 16 0 0.0 4.8 0.00 2.84 2.84 74 1013.3